Weather in Volokonovka

Russia / Belgorod Oblast     51°02′59″N   37°51′42″E
temp.,
°C
wind,
m/s
gust,
m/s
humid.,
%
clouds,
%
prec.,
mm/h
press.,
hPa
HPBL,
m
22 may, sun
sun2200:00+10ese4898100 1.8 1000274
03:00+10ese4899100 4.9 997294
06:00+10e3699100 1.9 994252
09:00+9nw5697100 2.4 996543
12:00+10wnw5992100 0.8 996815
15:00+10w5992100 1.5 997611
18:00+7ne5995100 2.1 999623
21:00+6ne4109283 3.1 1002564
23 may, mon
mon2300:00+7nnw3795100 0.1 1003324
03:00+5n369412 0.1 1004154
06:00+5nnw26915 0.0 1006175
09:00+9n45705 0.1 1006700
12:00+12nnw4449100 0.1 10072062
15:00+12nw345099 0.1 10071556
18:00+11n356194 0.0 10081032
21:00+6nw2274100 0.1 100910
24 may, tue
tue2400:00+5wsw22775 0.0 101014
03:00+4wsw358111 0.0 101074
06:00+5wnw27835 0.0 1011187
09:00+12wnw46550 0.0 1011662
12:00+15wnw565072 0.1 10102152
15:00+15wnw4657100 0.1 10101202
18:00+14nw5762100 0.1 1012688
21:00+11wnw347383 0.1 101377
25 may, wed
wed2500:00+9w3587100 0.1 1014100
03:00+8wsw31090100 0.1 1014193
06:00+9w5118799 0.0 1014315
09:00+14wnw7107570 0.5 1014912
12:00+15wnw71171100 2.2 10141418
15:00+15nw61174100 4.6 10141530
18:00+12ne2291100 1.9 101567
21:00+10ne369596 1.9 1016204
26 may, thu
thu2600:00+9e2391100 0.0 101783
03:00+7ese229122 0.0 101713
06:00+9se259044 0.0 1016172
09:00+14s358177 0.0 1015528
12:00+15ssw588067 0.0 1013485
15:00+17ssw6116074 0.0 10111069
18:00+12ssw61492100 2.8 1010744
21:00+12sw71593100 4.2 1009630